Vertical_Velocity
4 2 -9 7 6 10 8 1 1 -5 2 1 7 4 3 0 -6 3 2 5 -7 0 -3 2 3 -3 -0 4 3 -6 -2 -0 -2 1 -2 0 -0 0 -0 2 2 1 -4 -2
1 -5 6 8 5 4 6 1 -4 -3 -2 5 6 3 0 -2 1 1 -3 5 -3 -10 1 -1 2 -3 -3 -1 5 -2 -5 0 -5 0 0 1 1 1 -1 3 2 -1 3 4
-4 15 9 6 4 1 4 3 2 4 1 -3 -3 6 -1 -3 -1 1 6 -3 -1 -11 -6 0 1 -1 -3 1 5 5 -3 2 0 -2 -0 2 1 1 -1 -1 0 -2 -2 -2
8 8 1 8 4 -3 -1 2 1 3 1 4 -8 0 1 -7 -6 7 -2 -6 2 -8 -1 -1 1 3 -1 -3 -2 3 6 2 3 1 -0 -2 -0 -1 -1 2 3 3 4 2
7 1 3 -3 -5 12 6 8 5 -1 2 -6 2 -4 2 -4 4 2 0 1 -1 -4 -2 -0 -2 2 2 0 -0 -6 1 0 0 -1 -2 1 -1 -1 -2 -3 -2 0 3 5
-5 6 1 -3 2 7 7 -0 6 5 -2 -10 4 -4 -3 -1 4 2 1 1 -1 -3 -2 0 1 3 2 -0 1 -3 -4 -2 1 3 3 1 -0 -1 0 -0 -3 -3 -3 -4
16 4 7 10 8 6 4 7 3 -4 -5 -0 1 -8 0 -5 -2 2 0 -1 -2 -1 -3 -1 -1 -1 -0 1 0 1 0 -2 -4 -5 -2 0 4 3 1 -1 -1 -1 -3 -4
11 3 2 8 0 5 7 1 -0 -0 -3 0 -1 -8 2 -5 -4 -1 -1 1 -1 1 -1 -3 -3 -1 0 -1 1 -1 -1 -0 -1 -3 -2 -2 -0 1 2 0 1 1 -2 -3
3 1 1 3 4 2 3 -2 2 3 -2 -2 -2 -3 -1 -2 -2 1 2 2 -3 -3 -0 -1 -0 -2 -2 -0 1 -2 -2 -1 1 2 1 -3 -4 -3 -0 -2 -3 -1 -2 -1
8 -0 -2 2 0 2 -0 8 -1 1 -0 -4 -4 -5 -0 -0 1 1 -1 2 0 -1 -1 -1 -0 1 3 2 2 1 -1 -4 -5 -5 -3 -1 -2 -3 -2 0 -1 -0 1 1
3 6 5 -1 2 2 1 2 -0 2 -1 0 -2 -4 1 -0 -2 -3 -3 -1 0 -1 -1 -1 1 2 0 -2 -2 -1 -0 -0 3 5 2 -1 -1 -0 1 2 1 -2 -1 -1
-6 -2 -1 -1 0 1 2 -0 -1 -2 -1 -0 -2 -2 4 -1 1 4 -0 -1 -1 1 0 1 1 -1 1 0 0 -0 -2 1 3 4 4 2 -3 -1 -1 1 2 3 1 -1
8 19 5 1 -3 -2 -0 0 -1 2 2 -1 -1 -4 -1 1 1 2 -2 -3 -3 -4 -4 0 -1 -3 -1 1 1 2 1 1 0 -1 2 2 2 2 0 -0 -3 -3 -3 -3
-0 -1 -1 2 4 1 1 -0 -1 1 0 -1 -2 2 -3 -6 -3 -0 3 2 -3 -2 -3 3 -2 -5 0 -0 -1 -2 -4 -3 -2 -2 -1 -0 1 0 1 1 1 1 2 -1
-0 -0 1 1 0 0 0 1 0 1 -3 2 -6 0 3 4 -0 -4 0 -4 1 7 6 4 1 1 -0 1 -0 0 -2 -1 2 1 1 0 -1 -1 -1 -2 -2 -3 -2 -3
2 -0 -1 1 0 1 1 1 1 1 2 3 -1 -3 -2 1 1 0 2 2 1 -3 1 -1 2 4 2 0 0 0 -1 -4 -3 1 -1 1 -1 -5 -3 -1 -1 1 -0 -2
1 -0 1 3 0 -1 1 -0 0 0 1 2 2 -1 -4 -5 -3 1 -2 -2 -6 -3 -6 -4 -2 -5 -4 -2 0 1 3 4 2 5 1 -4 -4 -2 -3 -2 -3 -2 -1 -1
0 -1 -0 2 -0 0 3 -0 -1 -1 0 2 -0 3 0 -2 1 3 1 -0 3 3 3 0 -1 -1 -0 -1 0 2 1 -3 -0 -0 -5 -1 -1 -2 -2 -1 -1 -2 -4 -2
-1 -0 -1 -1 -0 -2 2 -0 -1 0 0 -1 0 -1 1 -2 4 -0 6 3 1 1 -0 1 1 0 -1 0 -0 1 6 5 5 -0 -2 -2 -4 -1 -1 -1 -0 -1 -2 -0
0 0 -1 -0 -1 -2 2 -2 -0 -0 -1 -1 1 0 3 -2 -2 0 -0 2 4 4 1 -0 -2 -2 -2 -3 -0 4 4 0 -4 -4 -0 1 0 -1 -0 -2 -2 -1 -2 1
-1 -2 -0 -1 -2 0 -2 0 -2 -3 1 -1 1 -0 0 0 0 1 4 1 3 4 0 -0 -1 -1 0 2 5 1 -1 -0 -0 0 1 1 -2 -1 -1 -1 -2 0 -0 1
-0 -2 -1 -3 -0 1 -0 -2 -0 -0 -1 1 -0 -3 0 0 -1 -2 1 3 -1 -3 -1 -0 -1 -0 0 3 -3 -2 -1 2 -1 -1 -1 -2 0 -1 -1 -1 0 -1 -1 1
1 -1 -1 -1 -2 -1 -1 -0 1 -1 0 -0 -4 0 0 1 -3 -1 -3 -3 0 0 -2 -0 1 5 4 -1 0 -1 -1 -0 -1 -1 -2 1 0 -1 -1 -0 0 -1 -1 0
-1 -3 0 1 -2 -1 2 0 -3 4 -0 3 -1 1 3 -2 2 0 2 -1 -2 -1 2 2 4 3 1 0 -2 -5 -1 -2 -3 -1 -1 -1 0 0 1 -0 -2 -0 -1 2
2 -1 -3 -0 -0 2 -5 2 1 -3 -1 -1 -1 -2 0 -1 1 0 -0 1 1 -0 -0 1 2 0 -2 -0 -1 -1 -2 -3 -2 -1 -1 -1 -1 1 1 -1 -1 0 -2 -2
-4 -2 -2 1 -3 -1 2 4 -1 -1 -0 2 -1 -3 -2 1 -0 0 -0 -1 1 -1 3 2 -1 -1 -1 1 -1 -2 -4 -2 -2 -0 1 -1 1 2 0 0 4 -2 -4 -1
Height
5746 5756 5766 5777 5785 5795 5802 5808 5813 5816 5821 5824 5831 5833 5834 5833 5834 5836 5831 5829 5827 5829 5830 5830 5830 5829 5827 5825 5824 5821 5819 5817 5814 5811 5809 5807 5804 5802 5800 5798 5796 5794 5790 5788
5738 5750 5763 5773 5781 5789 5796 5801 5805 5810 5813 5820 5824 5825 5826 5826 5829 5829 5826 5822 5821 5819 5821 5823 5823 5822 5820 5818 5817 5814 5811 5808 5804 5803 5800 5798 5796 5794 5791 5790 5787 5785 5782 5779
5736 5751 5759 5767 5774 5782 5789 5794 5799 5804 5808 5810 5816 5819 5820 5822 5822 5823 5822 5818 5818 5816 5816 5816 5815 5815 5813 5810 5809 5807 5803 5800 5797 5795 5793 5791 5788 5786 5782 5780 5777 5773 5769 5766
5739 5748 5755 5763 5770 5777 5784 5789 5794 5798 5800 5807 5809 5811 5815 5814 5816 5818 5815 5812 5812 5809 5809 5811 5809 5808 5805 5802 5800 5798 5796 5793 5791 5788 5784 5781 5778 5774 5771 5769 5766 5763 5759 5755
5740 5744 5751 5758 5765 5773 5782 5786 5789 5792 5797 5799 5803 5805 5810 5810 5811 5812 5811 5808 5807 5806 5805 5805 5804 5801 5799 5795 5792 5788 5787 5784 5781 5778 5774 5770 5766 5762 5759 5755 5752 5749 5745 5741
5737 5742 5748 5756 5764 5770 5777 5781 5788 5789 5790 5793 5800 5800 5801 5805 5806 5805 5805 5803 5801 5799 5799 5797 5795 5794 5791 5787 5784 5781 5777 5774 5771 5768 5764 5760 5756 5751 5747 5741 5737 5733 5728 5723
5737 5740 5748 5754 5761 5766 5771 5776 5781 5784 5785 5790 5793 5793 5796 5797 5797 5797 5797 5796 5795 5793 5792 5790 5788 5785 5782 5779 5776 5772 5768 5764 5760 5756 5753 5749 5745 5739 5734 5728 5723 5717 5712 5707
5737 5744 5748 5752 5757 5763 5768 5772 5776 5779 5782 5785 5787 5788 5790 5789 5790 5790 5789 5789 5788 5787 5785 5782 5780 5777 5774 5771 5768 5764 5760 5754 5749 5745 5741 5736 5732 5727 5721 5716 5710 5703 5696 5690
5739 5743 5747 5752 5757 5761 5765 5769 5774 5777 5778 5780 5781 5783 5784 5784 5785 5785 5784 5783 5781 5780 5779 5776 5773 5770 5766 5763 5758 5754 5750 5745 5740 5735 5729 5723 5717 5712 5707 5700 5694 5686 5678 5671
5739 5743 5746 5750 5754 5759 5763 5767 5770 5772 5774 5774 5775 5776 5778 5779 5781 5779 5778 5778 5776 5774 5771 5769 5765 5762 5758 5753 5750 5746 5741 5736 5730 5723 5716 5710 5702 5696 5690 5684 5677 5669 5661 5652
5738 5742 5747 5749 5753 5756 5760 5763 5765 5767 5769 5770 5771 5771 5772 5773 5773 5773 5772 5770 5768 5767 5764 5760 5757 5754 5750 5745 5740 5734 5729 5723 5717 5710 5702 5694 5687 5681 5673 5664 5656 5648 5640 5631
5736 5740 5745 5748 5750 5753 5756 5758 5760 5762 5765 5766 5766 5767 5767 5767 5766 5767 5765 5763 5762 5759 5755 5752 5750 5746 5741 5735 5729 5723 5716 5710 5703 5696 5688 5679 5671 5664 5656 5647 5637 5628 5620 5611
5736 5739 5743 5746 5750 5752 5753 5755 5756 5758 5760 5761 5761 5762 5760 5761 5762 5762 5760 5756 5753 5749 5747 5744 5740 5735 5729 5723 5717 5710 5703 5696 5689 5682 5673 5665 5655 5646 5636 5627 5617 5608 5599 5590
5737 5739 5743 5746 5747 5749 5751 5752 5753 5755 5756 5755 5756 5756 5756 5754 5753 5752 5749 5747 5745 5742 5740 5736 5730 5723 5717 5710 5703 5695 5686 5679 5670 5662 5654 5645 5636 5626 5616 5607 5597 5588 5578 5570
5739 5740 5742 5743 5744 5746 5747 5748 5749 5750 5750 5752 5749 5750 5750 5749 5747 5745 5743 5742 5739 5736 5732 5726 5718 5711 5705 5697 5689 5680 5672 5664 5655 5645 5635 5625 5615 5605 5596 5587 5578 5568 5558 5548
5737 5738 5739 5741 5741 5742 5743 5744 5745 5746 5746 5746 5745 5744 5743 5742 5741 5740 5739 5736 5731 5726 5720 5714 5707 5699 5691 5683 5675 5666 5655 5646 5637 5627 5617 5605 5596 5587 5577 5568 5557 5547 5537 5527
5735 5736 5737 5738 5739 5739 5741 5741 5742 5742 5742 5742 5741 5740 5738 5736 5734 5733 5730 5726 5720 5714 5708 5701 5694 5686 5677 5668 5659 5649 5639 5628 5617 5606 5596 5587 5579 5569 5558 5547 5537 5528 5520 5511
5733 5734 5734 5736 5736 5737 5738 5737 5737 5737 5737 5737 5736 5735 5736 5734 5731 5728 5724 5717 5711 5705 5697 5689 5680 5671 5662 5653 5643 5633 5621 5610 5599 5589 5580 5570 5560 5550 5539 5530 5522 5513 5505 5498
5731 5731 5732 5732 5733 5734 5733 5732 5732 5732 5733 5732 5732 5731 5729 5728 5725 5720 5715 5709 5701 5694 5686 5676 5667 5657 5646 5636 5627 5616 5604 5592 5582 5572 5562 5553 5542 5533 5525 5517 5509 5501 5494 5489
5728 5728 5729 5729 5728 5728 5729 5728 5728 5728 5728 5728 5728 5726 5724 5721 5716 5711 5705 5698 5691 5682 5673 5663 5652 5641 5631 5620 5608 5596 5585 5575 5565 5555 5546 5536 5527 5519 5512 5504 5497 5491 5486 5481
5723 5723 5724 5723 5723 5725 5724 5724 5724 5725 5728 5724 5723 5720 5717 5713 5709 5702 5695 5687 5678 5668 5659 5649 5638 5626 5614 5602 5589 5579 5569 5559 5549 5539 5531 5523 5515 5508 5501 5494 5489 5484 5478 5472
5719 5719 5719 5719 5720 5720 5720 5719 5720 5721 5720 5719 5717 5713 5709 5704 5697 5690 5683 5674 5665 5655 5645 5634 5622 5608 5595 5583 5573 5564 5553 5544 5535 5526 5519 5512 5505 5499 5493 5487 5482 5476 5469 5462
5715 5715 5715 5716 5716 5715 5715 5716 5716 5716 5715 5713 5710 5705 5700 5693 5687 5679 5669 5660 5651 5641 5630 5618 5605 5592 5579 5568 5557 5549 5539 5531 5523 5516 5509 5503 5497 5490 5486 5481 5475 5468 5460 5453
5709 5709 5710 5710 5711 5710 5710 5711 5711 5710 5709 5706 5702 5697 5691 5684 5675 5666 5656 5648 5637 5627 5615 5602 5588 5576 5565 5554 5543 5535 5528 5521 5514 5507 5500 5494 5489 5484 5479 5473 5466 5459 5451 5446
5705 5703 5703 5705 5705 5706 5706 5706 5706 5704 5701 5698 5694 5687 5679 5672 5663 5655 5647 5636 5624 5612 5599 5585 5572 5561 5550 5541 5533 5526 5519 5512 5506 5499 5493 5488 5483 5479 5474 5467 5458 5452 5445 5439
5697 5697 5698 5699 5700 5702 5701 5701 5701 5698 5695 5690 5684 5677 5670 5661 5652 5643 5633 5622 5611 5599 5584 5570 5558 5548 5539 5531 5524 5517 5511 5505 5499 5493 5488 5483 5479 5474 5469 5462 5455 5444 5439 5434